When you browse on this site, cookies collect data to enhance your experience and personalize the content and advertising you see.
Visit our Privacy Policy to learn more. By continuing to use the site, you agree to this use of cookies and data.
  • In Österreich
  • Länderverzeichnis
  • Für 7 Tage
  • Wassertemperatur
  • Satellitenkarten
  • Wetterkarte
  • News
  • Widgets
  • user-avatar
    Anmelden

    Stündliche Wetter Goldene Küste

    Heute, 19 Juli, Freitag

    Zeit Temperatur Niederschläge Wind Luftdruck Luftfeuchtigkeit
    00:00 +10°C° 0 mm 2 m/S 760 mmHg 71%
    01:00 +10°C° 0 mm 2 m/S 760 mmHg 72%
    02:00 +10°C° 0 mm 2 m/S 760 mmHg 72%
    03:00 +10°C° 0 mm 2 m/S 760 mmHg 72%
    04:00 +9°C° 0 mm 2 m/S 760 mmHg 71%
    05:00 +9°C° 0 mm 2 m/S 760 mmHg 71%
    06:00 +9°C° 0 mm 2 m/S 760 mmHg 72%
    07:00 +9°C° 0 mm 2 m/S 761 mmHg 72%
    08:00 +13°C° 0 mm 2 m/S 761 mmHg 63%
    09:00 +17°C° 0 mm 2 m/S 761 mmHg 53%
    10:00 +21°C° 0 mm 1 m/S 761 mmHg 43%
    11:00 +21°C° 0 mm 1 m/S 760 mmHg 41%
    12:00 +22°C° 0 mm 1 m/S 760 mmHg 38%
    13:00 +23°C° 0 mm 2 m/S 759 mmHg 36%
    14:00 +21°C° 0 mm 2 m/S 759 mmHg 39%
    15:00 +21°C° 0 mm 2 m/S 760 mmHg 43%
    16:00 +20°C° 0 mm 2 m/S 760 mmHg 46%
    17:00 +18°C° 0 mm 2 m/S 760 mmHg 56%
    18:00 +15°C° 0 mm 2 m/S 761 mmHg 66%
    19:00 +13°C° 0 mm 2 m/S 761 mmHg 75%
    20:00 +12°C° 0 mm 1 m/S 761 mmHg 77%
    21:00 +12°C° 0 mm 1 m/S 762 mmHg 78%
    22:00 +12°C° 0 mm 1 m/S 762 mmHg 79%
    23:00 +12°C° 0 mm 1 m/S 763 mmHg 79%

    Morgen, 20 Juli, Samstag

    Zeit Temperatur Niederschläge Wind Luftdruck Luftfeuchtigkeit
    00:00 +12°C° 0 mm 1 m/S 763 mmHg 78%
    01:00 +12°C° 0 mm 2 m/S 763 mmHg 78%
    02:00 +10°C° 0 mm 2 m/S 763 mmHg 79%
    03:00 +10°C° 0 mm 2 m/S 762 mmHg 80%
    04:00 +10°C° 0 mm 2 m/S 762 mmHg 80%
    05:00 +10°C° 0 mm 2 m/S 763 mmHg 81%
    06:00 +10°C° 0 mm 2 m/S 763 mmHg 82%
    07:00 +10°C° 0 mm 2 m/S 763 mmHg 83%
    08:00 +14°C° 0 mm 2 m/S 763 mmHg 73%
    09:00 +17°C° 0 mm 2 m/S 764 mmHg 62%
    10:00 +20°C° 0 mm 2 m/S 764 mmHg 51%
    11:00 +20°C° 0 mm 2 m/S 763 mmHg 49%
    12:00 +21°C° 0 mm 3 m/S 762 mmHg 47%
    13:00 +21°C° 0 mm 3 m/S 762 mmHg 45%
    14:00 +20°C° 0 mm 3 m/S 762 mmHg 49%
    15:00 +20°C° 0 mm 2 m/S 762 mmHg 53%
    16:00 +19°C° 0 mm 2 m/S 762 mmHg 57%
    17:00 +17°C° 0 mm 2 m/S 762 mmHg 66%
    18:00 +15°C° 0 mm 1 m/S 762 mmHg 75%
    19:00 +13°C° 0 mm 1 m/S 762 mmHg 84%
    20:00 +13°C° 0 mm 1 m/S 763 mmHg 85%
    21:00 +12°C° 0 mm 1 m/S 763 mmHg 87%
    22:00 +12°C° 0 mm 1 m/S 763 mmHg 88%
    23:00 +12°C° 0 mm 1 m/S 763 mmHg 89%

    übermorgen, 21 Juli, Sonntag

    Zeit Temperatur Niederschläge Wind Luftdruck Luftfeuchtigkeit
    00:00 +12°C° 0 mm 1 m/S 762 mmHg 89%
    01:00 +11°C° 0 mm 1 m/S 762 mmHg 90%
    02:00 +11°C° 0 mm 1 m/S 762 mmHg 90%
    03:00 +11°C° 0 mm 1 m/S 762 mmHg 90%
    04:00 +11°C° 0 mm 1 m/S 762 mmHg 91%
    05:00 +11°C° 0 mm 1 m/S 762 mmHg 90%
    06:00 +10°C° 0 mm 2 m/S 762 mmHg 90%
    07:00 +10°C° 0 mm 2 m/S 762 mmHg 90%
    08:00 +14°C° 0 mm 1 m/S 762 mmHg 76%
    09:00 +18°C° 0 mm 1 m/S 762 mmHg 63%
    10:00 +21°C° 0 mm 1 m/S 762 mmHg 50%
    11:00 +22°C° 0 mm 1 m/S 761 mmHg 48%
    12:00 +21°C° 0 mm 2 m/S 760 mmHg 46%
    13:00 +21°C° 0 mm 3 m/S 760 mmHg 44%
    14:00 +21°C° 0 mm 3 m/S 759 mmHg 46%
    15:00 +20°C° 0 mm 3 m/S 759 mmHg 48%
    16:00 +20°C° 0 mm 3 m/S 759 mmHg 50%
    17:00 +18°C° 0 mm 3 m/S 759 mmHg 60%
    18:00 +14°C° 0 mm 3 m/S 760 mmHg 70%
    19:00 +13°C° 0 mm 2 m/S 760 mmHg 80%
    20:00 +13°C° 0 mm 2 m/S 760 mmHg 82%
    21:00 +13°C° 0 mm 2 m/S 760 mmHg 84%
    22:00 +12°C° 0 mm 2 m/S 761 mmHg 86%
    23:00 +12°C° 0 mm 2 m/S 760 mmHg 86%

    22 Juli, Montag

    Zeit Temperatur Niederschläge Wind Luftdruck Luftfeuchtigkeit
    00:00 +12°C° 0 mm 2 m/S 760 mmHg 87%
    01:00 +12°C° 0 mm 2 m/S 760 mmHg 87%
    02:00 +12°C° 0 mm 2 m/S 760 mmHg 88%
    03:00 +12°C° 0 mm 2 m/S 760 mmHg 89%
    04:00 +12°C° 0 mm 2 m/S 760 mmHg 90%
    05:00 +12°C° 0 mm 2 m/S 760 mmHg 90%
    06:00 +12°C° 0 mm 2 m/S 761 mmHg 90%
    07:00 +12°C° 0 mm 2 m/S 761 mmHg 89%
    08:00 +15°C° 0 mm 2 m/S 761 mmHg 78%
    09:00 +18°C° 0 mm 2 m/S 761 mmHg 66%
    10:00 +21°C° 0 mm 2 m/S 761 mmHg 54%
    11:00 +23°C° 0 mm 2 m/S 761 mmHg 50%
    12:00 +24°C° 0 mm 2 m/S 760 mmHg 45%
    13:00 +25°C° 0 mm 2 m/S 759 mmHg 41%
    14:00 +24°C° 0 mm 3 m/S 759 mmHg 44%
    15:00 +24°C° 0 mm 3 m/S 759 mmHg 47%
    16:00 +22°C° 0 mm 3 m/S 759 mmHg 50%
    17:00 +20°C° 0 mm 3 m/S 759 mmHg 63%
    18:00 +17°C° 0 mm 3 m/S 760 mmHg 76%
    19:00 +14°C° 0 mm 3 m/S 760 mmHg 89%
    20:00 +15°C° 0 mm 2 m/S 760 mmHg 90%
    21:00 +14°C° 0 mm 2 m/S 761 mmHg 91%
    22:00 +14°C° 0 mm 2 m/S 761 mmHg 93%
    23:00 +14°C° 0 mm 2 m/S 761 mmHg 93%

    23 Juli, Dienstag

    Zeit Temperatur Niederschläge Wind Luftdruck Luftfeuchtigkeit
    00:00 +14°C° 0 mm 2 m/S 761 mmHg 93%
    01:00 +13°C° 0 mm 2 m/S 760 mmHg 93%
    02:00 +13°C° 0 mm 2 m/S 760 mmHg 93%
    03:00 +13°C° 0 mm 2 m/S 760 mmHg 94%
    04:00 +12°C° 0 mm 2 m/S 760 mmHg 94%
    05:00 +12°C° 0 mm 2 m/S 761 mmHg 93%
    06:00 +12°C° 0 mm 2 m/S 761 mmHg 92%
    07:00 +12°C° 0 mm 2 m/S 762 mmHg 90%
    08:00 +15°C° 0 mm 1 m/S 762 mmHg 75%
    09:00 +20°C° 0 mm 1 m/S 762 mmHg 60%
    10:00 +23°C° 0 mm 1 m/S 762 mmHg 44%
    11:00 +24°C° 0 mm 1 m/S 762 mmHg 41%
    12:00 +24°C° 0 mm 2 m/S 761 mmHg 37%
    13:00 +25°C° 0 mm 2 m/S 760 mmHg 34%
    14:00 +25°C° 0 mm 2 m/S 760 mmHg 38%
    15:00 +24°C° 0 mm 2 m/S 760 mmHg 43%
    16:00 +23°C° 0 mm 2 m/S 760 mmHg 47%
    17:00 +20°C° 0 mm 2 m/S 760 mmHg 59%
    18:00 +17°C° 0 mm 2 m/S 760 mmHg 71%
    19:00 +15°C° 0 mm 2 m/S 761 mmHg 82%
    20:00 +15°C° 0 mm 2 m/S 761 mmHg 84%
    21:00 +14°C° 0 mm 2 m/S 761 mmHg 87%
    22:00 +14°C° 0 mm 2 m/S 761 mmHg 89%
    23:00 +14°C° 0 mm 2 m/S 761 mmHg 88%

    24 Juli, Mittwoch

    Zeit Temperatur Niederschläge Wind Luftdruck Luftfeuchtigkeit
    00:00 +14°C° 0 mm 2 m/S 761 mmHg 87%
    01:00 +14°C° 0 mm 2 m/S 761 mmHg 86%
    02:00 +13°C° 0 mm 2 m/S 761 mmHg 85%
    03:00 +13°C° 0 mm 2 m/S 761 mmHg 85%
    04:00 +13°C° 0 mm 2 m/S 760 mmHg 85%
    05:00 +13°C° 0 mm 2 m/S 761 mmHg 82%
    06:00 +13°C° 0 mm 2 m/S 761 mmHg 80%
    07:00 +13°C° 0 mm 2 m/S 762 mmHg 78%
    08:00 +16°C° 0 mm 2 m/S 762 mmHg 65%
    09:00 +19°C° 0 mm 2 m/S 761 mmHg 53%
    10:00 +22°C° 0 mm 3 m/S 761 mmHg 40%
    11:00 +24°C° 0 mm 3 m/S 761 mmHg 38%
    12:00 +25°C° 0 mm 3 m/S 760 mmHg 35%
    13:00 +26°C° 0 mm 3 m/S 759 mmHg 32%
    14:00 +25°C° 0 mm 3 m/S 759 mmHg 34%
    15:00 +25°C° 0 mm 3 m/S 759 mmHg 37%
    16:00 +24°C° 0 mm 3 m/S 759 mmHg 39%
    17:00 +21°C° 0 mm 3 m/S 759 mmHg 43%
    18:00 +18°C° 0 mm 3 m/S 760 mmHg 47%
    19:00 +16°C° 0 mm 3 m/S 760 mmHg 52%
    20:00 +14°C° 0 mm 3 m/S 761 mmHg 51%
    21:00 +14°C° 0 mm 3 m/S 761 mmHg 50%
    22:00 +13°C° 0 mm 4 m/S 761 mmHg 49%
    23:00 +13°C° 0 mm 3 m/S 761 mmHg 50%
    Mehr zeigen